This demonstration page uses our WeatherBlox Daily Observations layout. Learn more.

Left ArrowRight Arrow

Hourly Observations for April 5, 2016

Temp ( °F °C ) Dew Point ( °F °C ) Humidity (%) Winds ( mph kmh ) Pressure ( in mb ) Visibility ( mi km ) Precip ( " mm )
12:53 am 00:53 Clear 64 17.8 31 -0.6 29 29 NNW 13 20 30.25 1024 10 16 0.00 0.00
1:53 am 01:53 Clear 62 16.7 32 0 32 32 NNW 12 19 30.24 1024 10 16 0.00 0.00
2:53 am 02:53 Clear 61 16.1 31 -0.6 32 32 NNW 12 19 30.24 1024 10 16 0.00 0.00
3:53 am 03:53 Clear 61 16.1 30 -1.1 31 31 NNW 15 24 30.25 1025 10 16 0.00 0.00
4:53 am 04:53 Clear 61 16.1 30 -1.1 31 31 N 15 24 30.24 1024 10 16 0.00 0.00
5:53 am 05:53 Clear 60 15.6 30 -1.1 32 32 NNW 13 20 30.26 1025 10 16 0.00 0.00
6:53 am 06:53 Sunny 59 15 30 -1.1 33 33 NNW 12 19 30.28 1025 10 16 0.00 0.00
7:53 am 07:53 Sunny 61 16.1 30 -1.1 31 31 N 14 22 30.29 1026 10 16 0.00 0.00
8:53 am 08:53 Sunny 64 17.8 28 -2.2 26 26 N 18 30 30.31 1026 10 16 0.00 0.00
9:53 am 09:53 Sunny 67 19.4 28 -2.2 23 23 N 14 22 30.31 1026 10 16 0.00 0.00
10:53 am 10:53 Sunny 71 21.7 29 -1.7 21 21 N 18 30 30.30 1026 10 16 0.00 0.00
11:53 am 11:53 Sunny 74 23.3 31 -0.6 20 20 N 17 28 30.27 1025 10 16 0.00 0.00
12:53 pm 12:53 Sunny 77 25 32 0 19 19 N 18 30 30.23 1024 10 16 0.00 0.00
1:53 pm 13:53 Sunny 80 26.7 34 1.1 19 19 N 17 28 30.19 1023 10 16 0.00 0.00
2:53 pm 14:53 Sunny 82 27.8 37 2.8 20 20 N 14 22 30.16 1022 10 16 0.00 0.00
3:53 pm 15:53 Sunny 83 28.3 36 2.2 19 19 N 17 28 30.14 1021 10 16 0.00 0.00
4:53 pm 16:53 Sunny 82 28 36 2 19 19 N 21 33 30.12 1020 10 16 0.00 0.00
5:53 pm 17:53 Sunny 84 28.9 37 2.8 19 19 N 13 20 30.12 1020 10 16 0.00 0.00
6:53 pm 18:53 Sunny 82 27.8 37 2.8 20 20 N 15 24 30.13 1020 10 16 0.00 0.00
7:53 pm 19:53 Clear 78 25.6 38 3.3 24 24 N 12 19 30.14 1021 10 16 0.00 0.00
8:53 pm 20:53 Clear 75 23.9 37 2.8 25 25 N 12 19 30.16 1021 10 16 0.00 0.00
9:53 pm 21:53 Clear 74 23.3 37 2.8 26 26 NNW 7 11 30.17 1022 10 16 0.00 0.00
10:53 pm 22:53 Clear 73 22.8 37 2.8 27 27 NNW 9 15 30.17 1022 10 16 0.00 0.00
11:53 pm 23:53 Clear 72 22.2 36 2.2 27 27 N 9 15 30.17 1022 10 16 0.00 0.00

Powered by AerisWeather